When you browse on this site, cookies collect data to enhance your experience and personalize the content and advertising you see.
Visit our Privacy Policy to learn more. By continuing to use the site, you agree to this use of cookies and data.
  • In France
  • List of Countries
  • For 7 days
  • Water Temperature
  • Satellite Maps
  • Weather Map
  • Weather Widgets
  • user-avatar
    Login

    Hourly Weather Choroda

    Today, 9 December, Sunday

    Time Temperature Precipitation Wind Pressure Humidity
    00:00 -4°C° 0 mm 2 mps 629 mmHg 75%
    01:00 -4°C° 0 mm 2 mps 629 mmHg 76%
    02:00 -4°C° 0 mm 2 mps 629 mmHg 76%
    03:00 -4°C° 0 mm 2 mps 628 mmHg 78%
    04:00 -4°C° 0 mm 2 mps 628 mmHg 79%
    05:00 -4°C° 0 mm 2 mps 628 mmHg 80%
    06:00 -4°C° 0 mm 2 mps 628 mmHg 80%
    07:00 -3°C° 0 mm 2 mps 629 mmHg 78%
    08:00 -2°C° 0 mm 2 mps 629 mmHg 76%
    09:00 -2°C° 0 mm 2 mps 630 mmHg 74%
    10:00 -1°C° 0 mm 2 mps 630 mmHg 73%
    11:00 +1°C° 0 mm 2 mps 630 mmHg 72%
    12:00 +2°C° 0 mm 2 mps 630 mmHg 70%
    13:00 +2°C° 0 mm 2 mps 630 mmHg 72%
    14:00 +2°C° 0 mm 2 mps 630 mmHg 73%
    15:00 +1°C° 0 mm 2 mps 630 mmHg 75%
    16:00 -1°C° 0 mm 2 mps 629 mmHg 77%
    17:00 -2°C° 0 mm 2 mps 629 mmHg 78%
    18:00 -3°C° 0 mm 2 mps 629 mmHg 80%
    19:00 -3°C° 0 mm 2 mps 629 mmHg 78%
    20:00 -3°C° 0 mm 2 mps 629 mmHg 76%
    21:00 -3°C° 0 mm 2 mps 629 mmHg 74%
    22:00 -3°C° 0 mm 2 mps 628 mmHg 74%
    23:00 -3°C° 0 mm 2 mps 628 mmHg 73%

    Tomorrow, 10 December, Monday

    Time Temperature Precipitation Wind Pressure Humidity
    00:00 -3°C° 0 mm 2 mps 628 mmHg 72%
    01:00 -3°C° 0 mm 2 mps 628 mmHg 71%
    02:00 -3°C° 0 mm 2 mps 628 mmHg 70%
    03:00 -3°C° 0 mm 2 mps 627 mmHg 68%
    04:00 -3°C° 0 mm 2 mps 627 mmHg 67%
    05:00 -3°C° 0 mm 2 mps 627 mmHg 65%
    06:00 -3°C° 0 mm 2 mps 627 mmHg 64%
    07:00 -2°C° 0 mm 2 mps 627 mmHg 61%
    08:00 -1°C° 0 mm 2 mps 627 mmHg 59%
    09:00 +1°C° 0 mm 2 mps 627 mmHg 56%
    10:00 +3°C° 0 mm 2 mps 628 mmHg 55%
    11:00 +4°C° 0 mm 2 mps 628 mmHg 53%
    12:00 +5°C° 0 mm 2 mps 628 mmHg 52%
    13:00 +5°C° 0 mm 2 mps 627 mmHg 55%
    14:00 +4°C° 0 mm 2 mps 627 mmHg 59%
    15:00 +4°C° 0 mm 2 mps 627 mmHg 62%
    16:00 +3°C° 0 mm 2 mps 626 mmHg 62%
    17:00 +1°C° 0 mm 2 mps 626 mmHg 61%
    18:00 -1°C° 0 mm 2 mps 626 mmHg 61%
    19:00 -1°C° 0 mm 3 mps 626 mmHg 60%
    20:00 -1°C° 0 mm 3 mps 625 mmHg 60%
    21:00 -1°C° 0 mm 3 mps 625 mmHg 59%
    22:00 -1°C° 0 mm 3 mps 625 mmHg 60%
    23:00 -1°C° 0 mm 3 mps 625 mmHg 61%

    Day after tomorrow, 11 December, Tuesday

    Time Temperature Precipitation Wind Pressure Humidity
    00:00 -1°C° 0 mm 3 mps 625 mmHg 62%
    01:00 -1°C° 0 mm 3 mps 625 mmHg 61%
    02:00 -1°C° 0 mm 3 mps 625 mmHg 60%
    03:00 -1°C° 0 mm 3 mps 625 mmHg 59%
    04:00 -1°C° 0 mm 3 mps 625 mmHg 58%
    05:00 +1°C° 0 mm 2 mps 625 mmHg 56%
    06:00 +1°C° 0 mm 2 mps 625 mmHg 55%
    07:00 +2°C° 0 mm 2 mps 625 mmHg 54%
    08:00 +2°C° 0 mm 3 mps 626 mmHg 52%
    09:00 +3°C° 0 mm 3 mps 626 mmHg 51%
    10:00 +4°C° 0 mm 3 mps 626 mmHg 51%
    11:00 +5°C° 0 mm 3 mps 626 mmHg 51%
    12:00 +8°C° 0 mm 3 mps 626 mmHg 51%
    13:00 +7°C° 0 mm 3 mps 626 mmHg 54%
    14:00 +5°C° 0 mm 3 mps 625 mmHg 57%
    15:00 +5°C° 0 mm 3 mps 625 mmHg 60%
    16:00 +4°C° 0 mm 4 mps 625 mmHg 62%
    17:00 +3°C° 0 mm 4 mps 624 mmHg 64%
    18:00 +1°C° 0 mm 4 mps 624 mmHg 66%
    19:00 +1°C° 0 mm 4 mps 623 mmHg 67%
    20:00 +1°C° 0 mm 4 mps 623 mmHg 67%
    21:00 +1°C° 0 mm 4 mps 623 mmHg 68%
    22:00 +1°C° 0 mm 4 mps 622 mmHg 68%
    23:00 0°C° 0 mm 4 mps 622 mmHg 68%

    12 December, Wednesday

    Time Temperature Precipitation Wind Pressure Humidity
    00:00 0°C° 0 mm 4 mps 622 mmHg 68%
    01:00 0°C° 0 mm 4 mps 622 mmHg 69%
    02:00 0°C° 0 mm 4 mps 623 mmHg 70%
    03:00 0°C° 0 mm 4 mps 623 mmHg 70%
    04:00 0°C° 0 mm 4 mps 624 mmHg 72%
    05:00 -1°C° 0 mm 4 mps 624 mmHg 73%
    06:00 0°C° 0 mm 3 mps 625 mmHg 75%
    07:00 0°C° 0 mm 3 mps 625 mmHg 72%
    08:00 +1°C° 0 mm 3 mps 626 mmHg 69%
    09:00 +1°C° 0 mm 3 mps 627 mmHg 67%
    10:00 +2°C° 0 mm 3 mps 627 mmHg 63%
    11:00 +4°C° 0 mm 2 mps 627 mmHg 59%
    12:00 +4°C° 0 mm 2 mps 627 mmHg 55%
    13:00 +4°C° 0.3 mm 2 mps 627 mmHg 61%
    14:00 +3°C° 0.3 mm 2 mps 627 mmHg 66%
    15:00 +4°C° 0.3 mm 1 mps 626 mmHg 72%
    16:00 +2°C° 0.6 mm 2 mps 626 mmHg 77%
    17:00 +2°C° 0.6 mm 2 mps 626 mmHg 82%
    18:00 +1°C° 0.6 mm 2 mps 626 mmHg 86%
    19:00 +1°C° 0.7 mm 2 mps 626 mmHg 88%
    20:00 +1°C° 0.7 mm 2 mps 626 mmHg 89%
    21:00 +1°C° 0.7 mm 2 mps 625 mmHg 90%
    22:00 +1°C° 0.7 mm 2 mps 625 mmHg 90%
    23:00 +1°C° 0.7 mm 2 mps 625 mmHg 89%

    13 December, Thursday

    Time Temperature Precipitation Wind Pressure Humidity
    00:00 +1°C° 0.7 mm 2 mps 625 mmHg 88%
    01:00 +1°C° 0.3 mm 2 mps 625 mmHg 88%
    02:00 0°C° 0.3 mm 3 mps 625 mmHg 87%
    03:00 0°C° 0.3 mm 3 mps 625 mmHg 87%
    04:00 -1°C° 0.1 mm 3 mps 625 mmHg 88%
    05:00 -1°C° 0.1 mm 2 mps 625 mmHg 89%
    06:00 -2°C° 0.1 mm 2 mps 625 mmHg 90%
    07:00 -2°C° 0.1 mm 2 mps 625 mmHg 88%
    08:00 -2°C° 0.1 mm 2 mps 626 mmHg 87%
    09:00 -1°C° 0.1 mm 2 mps 626 mmHg 85%
    10:00 -1°C° 0.1 mm 3 mps 627 mmHg 84%
    11:00 -1°C° 0.1 mm 3 mps 627 mmHg 82%
    12:00 0°C° 0.1 mm 3 mps 627 mmHg 81%
    13:00 -1°C° 0.1 mm 2 mps 628 mmHg 82%
    14:00 -1°C° 0.1 mm 2 mps 628 mmHg 83%
    15:00 -2°C° 0.1 mm 2 mps 628 mmHg 85%
    16:00 -3°C° 0.1 mm 2 mps 628 mmHg 85%
    17:00 -4°C° 0.1 mm 2 mps 628 mmHg 86%
    18:00 -3°C° 0.1 mm 1 mps 628 mmHg 86%
    19:00 -3°C° 0.1 mm 1 mps 628 mmHg 83%
    20:00 -4°C° 0.1 mm 1 mps 629 mmHg 79%
    21:00 -6°C° 0.1 mm 2 mps 629 mmHg 75%
    22:00 -6°C° 0.1 mm 2 mps 629 mmHg 73%
    23:00 -6°C° 0.1 mm 2 mps 629 mmHg 70%

    14 December, Friday

    Time Temperature Precipitation Wind Pressure Humidity
    00:00 -6°C° 0.1 mm 2 mps 629 mmHg 67%
    01:00 -6°C° 0 mm 2 mps 629 mmHg 67%
    02:00 -7°C° 0 mm 2 mps 629 mmHg 67%
    03:00 -7°C° 0 mm 2 mps 629 mmHg 67%
    04:00 -7°C° 0 mm 2 mps 629 mmHg 67%
    05:00 -7°C° 0 mm 2 mps 629 mmHg 68%
    06:00 -7°C° 0 mm 2 mps 629 mmHg 69%
    07:00 -7°C° 0 mm 2 mps 630 mmHg 69%
    08:00 -6°C° 0 mm 2 mps 630 mmHg 69%
    09:00 -6°C° 0 mm 2 mps 630 mmHg 69%
    10:00 -5°C° 0 mm 2 mps 631 mmHg 69%
    11:00 -4°C° 0 mm 2 mps 631 mmHg 68%
    12:00 -3°C° 0 mm 2 mps 631 mmHg 67%
    13:00 -3°C° 0 mm 2 mps 631 mmHg 69%
    14:00 -4°C° 0 mm 2 mps 631 mmHg 71%
    15:00 -4°C° 0 mm 2 mps 631 mmHg 73%
    16:00 -5°C° 0 mm 2 mps 630 mmHg 76%
    17:00 -6°C° 0 mm 2 mps 630 mmHg 78%
    18:00 -8°C° 0 mm 2 mps 630 mmHg 80%
    19:00 -8°C° 0 mm 2 mps 630 mmHg 77%
    20:00 -8°C° 0 mm 2 mps 630 mmHg 75%
    21:00 -8°C° 0 mm 2 mps 630 mmHg 72%
    22:00 -8°C° 0 mm 2 mps 629 mmHg 69%
    23:00 -8°C° 0 mm 2 mps 629 mmHg 66%
    Show more